[[{"header":{"parameterUnit":"m.s-1","parameterCategory":1,"la1":30.2991,"la2":30.254,"lo1":-89.0895,"lo2":-89.0444,"dy":0.0017,"dx":0.0017,"nx":28,"ny":28,"refTime":"2025-05-16T09:00:00:Z","depth":0,"parameterNumber":2,"parameterNumberName":"U-component_of_WINDS"},"data":[0,0,0,0,0,0,0,0,0,0,0,0,0,0,0,0,0,0,0,0,0,0,0,0,0,0,0,0,0,0,0,0,0,0,0,0,0,0,0,0,0,0,0,0,0,0,0,0,0,0,0,0,0,0,0,0,0,0,0.0043,0.0045,0,0.0196,0.0197,0.0199,0.0246,0.0245,0.0244,0.0244,0.04,0.0405,0.041,0,0,0,0,0,0,0,0,0,0,0,0,0,-0.021,-0.0205,0.0043,0.0045,0.0047,0.0195,0.0197,0.02,0.0246,0.0245,0.0244,0.0243,0.0398,0.0404,0.041,0,0,0,0,0,0,0,0,0,0,0,0,0,-0.0083,-0.0204,0.0042,0.0088,0.0093,0.0195,0.0198,0.02,0.0246,0.0245,0.0244,0.0243,0.0397,0.0404,0.0411,0.0478,0,0,0.0433,0.0436,0,0,0,0,0,0,0,0,-0.009,-0.0074,0.0079,0.0085,0.0091,0.0201,0.0166,0.0293,0.0246,0.0188,0.0244,0.0242,0.0335,0.0347,0.0378,0.0486,0.0492,0.0434,0.0438,0.0441,0.0443,0,0,0,0,0,0,0,-0.0099,-0.008,0.0103,0.0081,0.0089,0.01,0.0117,0.019,0.0266,0.0193,0.0197,0.0214,0.0338,0.0371,0.0382,0.0495,0.0434,0.044,0.0445,0.0447,0.0665,0.0666,0,0,0,0,0,0,-0.0115,-0.0088,0.0098,0.0108,-0.0004,0.0105,0.0124,0.0167,0.0265,0.0279,0.0215,0.0216,0.0359,0.0373,0.0388,0.0473,0.0441,0.0448,0.0452,0.0663,0.0665,0.0667,0,0,0,0,0,0,-0.0121,-0.0099,0.0092,0.0011,0.0036,0.0111,0.0158,0.017,0.0204,0.0282,0.0295,0.0235,0.0359,0.0377,0.0455,0.0479,0.0451,0.0458,0.0662,0.0664,0.0666,0.0645,0,0,0,0,0,0,-0.0129,-0.0102,-0.0075,0.0011,0.0041,0.0158,0.016,0.0174,0.0216,0.0218,0.0304,0.0317,0.0359,0.0444,0.0463,0.0489,0.0464,0.066,0.0663,0.0665,0.0644,0.0646,0.0648,0,0,0,0,0,-0.0138,-0.0087,-0.0074,-0.0051,0.0076,0.0159,0.0176,0.0223,0.0218,0.0245,0.0295,0.0315,0.0473,0.0452,0.0473,0.0502,0.0659,0.0662,0.0665,0.0643,0.0645,0.0648,0,0,0,0,0,0,-0.0172,-0.0074,-0.0059,0.0022,0.0082,0.0167,0.0203,0.0224,0.0287,0.0287,0.0342,0.0361,0.0435,0.0476,0.045,0.0572,0.0567,0.0574,0.0542,0.0546,0.0548,0.0537,0.047,0,0,0,0,0,-0.017,-0.011,-0.0029,0.0034,0.0064,0.0128,0.0166,0.0197,0.0261,0.0287,0.0343,0.0404,0.0468,0.0509,0.0572,0.0649,0.0668,0.0679,0.0681,0.0683,0.0689,0.0732,0.0738,0.0677,0.0677,0.0677,0,0,-0.0165,-0.0105,-0.007,0.0029,0.0079,0.014,0.0149,0.0213,0.0258,0.0297,0.0374,0.0416,0.0489,0.0566,0.0603,0.0603,0.071,0.0687,0.0687,0.0693,0.0736,0.0742,0.0747,0.0679,0.0679,0.0678,0,0,-0.0126,-0.0075,-0.0016,0.0033,0.0109,0.0151,0.0165,0.0247,0.0277,0.0355,0.0385,0.0439,0.0548,0.0598,0.0638,0.0694,0.0714,0.0713,0.0724,0.0766,0.077,0.0775,0.0795,0.0802,0.0718,0.0718,0.0718,0,-0.013,-0.0038,0.0011,0.0073,0.0116,0.0153,0.0212,0.0258,0.035,0.0378,0.0376,0.0513,0.0564,0.0654,0.0667,0.0698,0.0716,0.0704,0.0766,0.0771,0.0776,0.0796,0.0803,0.0718,0.0718,0.0718,0.0718,0,-0.0046,0.0017,0.0055,0.0143,0.019,0.025,0.0307,0.0348,0.0374,0.0416,0.0495,0.0557,0.0634,0.0657,0.0683,0.075,0.0748,0.0755,0.0751,0.078,0.08,0.0808,0.0717,0.0717,0.0717,0.0717,0,0,-0.0023,0.009,0.0104,0.0144,0.0229,0.0279,0.034,0.0414,0.0449,0.051,0.0563,0.0653,0.066,0.0705,0.0737,0.0774,0.0814,0.0777,0.0779,0.0782,0.0892,0.0886,0.0894,0.0828,0.0829,0.0831,0.0886,0,0.0028,0.014,0.0184,0.0275,0.0333,0.0369,0.0422,0.048,0.052,0.0576,0.062,0.0683,0.0688,0.0715,0.0753,0.0801,0.0837,0.0798,0.0877,0.088,0.0859,0.0905,0.09,0.0949,0.0894,0.0895,0.0896,0,0.0102,0.0165,0.0261,0.0338,0.0365,0.0412,0.0483,0.0536,0.0601,0.0628,0.0677,0.0707,0.0772,0.0763,0.0853,0.0825,0.086,0.0889,0.0892,0.0902,0.089,0.0917,0.0966,0.0973,0.0909,0.0908,0.0907,0,0.011,0.0218,0.0289,0.0322,0.0415,0.0447,0.0487,0.0551,0.0593,0.0655,0.0682,0.075,0.0788,0.084,0.0887,0.0876,0.0973,0.0968,0.0997,0.0996,0.1017,0.1015,0.1073,0.1038,0.1038,0.1037,0.1037,0,0.0162,0.022,0.0294,0.0338,0.0403,0.0453,0.0516,0.0558,0.0615,0.0668,0.0702,0.075,0.0809,0.0865,0.0902,0.0971,0.0988,0.1011,0.102,0.1009,0.1006,0.1033,0.1031,0.1039,0.1039,0.1039,0.1038,0,0.0183,0.0235,0.0315,0.0395,0.0417,0.0461,0.053,0.0574,0.0615,0.068,0.0699,0.0764,0.0831,0.0883,0.097,0.0995,0.1068,0.1078,0.1046,0.1051,0.1078,0.1074,0.1156,0.1169,0.1124,0.1124,0.1124,0,0.0213,0.0258,0.0343,0.0381,0.042,0.048,0.0523,0.0573,0.0616,0.0693,0.0727,0.0797,0.0856,0.0961,0.1016,0.1083,0.1095,0.1118,0.1105,0.1092,0.1096,0.1093,0.1098,0.112,0.1121,0.1121,0.1121,0,0.0262,0.0285,0.0345,0.0413,0.0463,0.0519,0.0576,0.0605,0.0666,0.0711,0.0781,0.0826,0.0915,0.0983,0.1055,0.1096,0.1119,0.1124,0.1135,0.1124,0.1104,0.1115,0.1051,0.1123,0.1123,0.1123,0.1122,0.1122,0.0289,0.033,0.0396,0.0462,0.051,0.0562,0.0607,0.0653,0.0712,0.0788,0.0814,0.0885,0.0949,0.1048,0.1089,0.1145,0.1146,0.1161,0.1165,0.1168,0.1167,0.1094,0.1158,0.1158,0.1159,0.1159,0.1159,0,0.0339,0.0383,0.0443,0.0521,0.0572,0.0589,0.0652,0.0694,0.0756,0.0814,0.087,0.0949,0.1015,0.1075,0.1144,0.1177,0.1189,0.1193,0.1192,0.1201,0.1162,0.1147,0.1183,0.1183,0.1182,0.1182,0.1182,0.1182,0.0372,0.0443,0.0473,0.0568,0.0612,0.0682,0.0717,0.0765,0.0811,0.0898,0.0953,0.0991,0.1049,0.1122,0.1184,0.1199,0.1223,0.1225,0.1244,0.1207,0.1204,0.1201,0.1186,0.123,0.123,0.1278,0.1278,0.1278]},{"header":{"parameterUnit":"m.s-1","parameterCategory":1,"la1":30.2991,"la2":30.254,"lo1":-89.0895,"lo2":-89.0444,"dy":0.0017,"dx":0.0017,"nx":28,"ny":28,"refTime":"2025-05-16T09:00:00:Z","depth":0,"parameterNumber":3,"parameterNumberName":"V-component_of_WINDS"},"data":[0,0,0,0,0,0,0,0,0,0,0,0,0,0,0,0,0,0,0,0,0,0,0,0,0,0,0,0,0,0,0,0,0,0,0,0,0,0,0,0,0,0,0,0,0,0,0,0,0,0,0,0,0,0,0,0,0,0,5.3306,5.3305,0,5.3281,5.328,5.328,5.3188,5.3185,5.3183,5.3181,5.3157,5.3158,5.3159,0,0,0,0,0,0,0,0,0,0,0,0,0,5.3275,5.3276,5.3306,5.3305,5.3305,5.3281,5.328,5.328,5.3188,5.3185,5.3183,5.318,5.3156,5.3158,5.3159,0,0,0,0,0,0,0,0,0,0,0,0,0,5.3273,5.3277,5.3306,5.3256,5.3251,5.3281,5.328,5.328,5.3188,5.3185,5.3182,5.3179,5.3156,5.3158,5.316,5.3235,0,0,5.3166,5.3167,0,0,0,0,0,0,0,0,5.3273,5.3274,5.3264,5.326,5.3254,5.3234,5.326,5.3265,5.3189,5.3212,5.3181,5.3178,5.3185,5.3184,5.3187,5.3234,5.3233,5.3166,5.3167,5.3168,5.3168,0,0,0,0,0,0,0,5.3274,5.3275,5.3296,5.3264,5.3258,5.3236,5.3232,5.3261,5.3217,5.321,5.3203,5.3202,5.3182,5.3185,5.3185,5.3233,5.3166,5.3168,5.3169,5.317,5.3342,5.3346,0,0,0,0,0,0,5.3281,5.3276,5.3297,5.3295,5.3256,5.3239,5.3235,5.3244,5.3216,5.3209,5.3204,5.3197,5.3183,5.3183,5.3184,5.3272,5.3168,5.317,5.3171,5.3339,5.3343,5.3347,0,0,0,0,0,0,5.328,5.3283,5.3298,5.3284,5.3284,5.3243,5.3254,5.3245,5.3248,5.3212,5.3204,5.3216,5.3181,5.3182,5.3224,5.327,5.3171,5.3172,5.3335,5.334,5.3345,5.3448,0,0,0,0,0,0,5.328,5.3284,5.3312,5.3285,5.3285,5.3337,5.3257,5.3247,5.3251,5.3242,5.322,5.3214,5.3178,5.3221,5.3226,5.3271,5.3174,5.3331,5.3337,5.3343,5.344,5.3456,5.3469,0,0,0,0,0,5.3279,5.3341,5.3314,5.3317,5.3319,5.334,5.334,5.3298,5.3256,5.3284,5.3261,5.3214,5.3264,5.3226,5.323,5.3277,5.3328,5.3336,5.3343,5.3433,5.3453,5.3469,0,0,0,0,0,0,5.3374,5.3337,5.3306,5.3361,5.3354,5.3324,5.3358,5.3319,5.3324,5.3316,5.3263,5.3259,5.3309,5.3297,5.3256,5.3349,5.3288,5.3297,5.3356,5.3373,5.3388,5.339,5.3176,0,0,0,0,0,5.3402,5.3422,5.3388,5.344,5.3438,5.3399,5.3407,5.3375,5.3366,5.3363,5.3343,5.3337,5.3351,5.3361,5.3372,5.3438,5.3432,5.3472,5.3487,5.3499,5.3507,5.3542,5.356,5.3372,5.3372,5.3372,0,0,5.3459,5.3441,5.3456,5.3459,5.345,5.3473,5.3397,5.3424,5.3441,5.3367,5.3406,5.3391,5.3381,5.3435,5.3458,5.3427,5.3558,5.3508,5.3518,5.352,5.3552,5.357,5.3586,5.3377,5.3376,5.3376,0,0,5.3574,5.3562,5.3605,5.3598,5.3586,5.3559,5.357,5.3546,5.3534,5.3572,5.3517,5.3537,5.3562,5.3557,5.3558,5.3674,5.3632,5.3679,5.3755,5.379,5.3805,5.3818,5.386,5.3876,5.3687,5.3687,5.3688,0,5.3646,5.3678,5.3632,5.3663,5.3666,5.3601,5.3644,5.364,5.3632,5.3636,5.3601,5.3632,5.362,5.3674,5.3702,5.3705,5.3716,5.3681,5.3806,5.3819,5.383,5.387,5.3886,5.3693,5.3693,5.3692,5.3691,0,5.3768,5.3791,5.3827,5.3822,5.3829,5.3866,5.3826,5.3839,5.3808,5.3786,5.3826,5.381,5.3817,5.3827,5.3796,5.3877,5.3858,5.3815,5.3753,5.3855,5.3891,5.3906,5.3702,5.37,5.3698,5.3696,0,0,5.3942,5.3911,5.3926,5.3923,5.3906,5.3923,5.3958,5.3965,5.3978,5.3975,5.4004,5.4027,5.3988,5.3989,5.3957,5.3988,5.4083,5.3942,5.3941,5.3969,5.4172,5.4205,5.4223,5.4055,5.4057,5.4059,5.4173,0,5.4052,5.411,5.407,5.4134,5.4156,5.4095,5.4126,5.4119,5.41,5.4116,5.4094,5.4112,5.4058,5.4059,5.4087,5.4065,5.4123,5.4056,5.4082,5.4083,5.4087,5.4242,5.4277,5.4385,5.4187,5.419,5.4191,0,5.4188,5.4193,5.426,5.4239,5.4247,5.4275,5.4279,5.4295,5.4287,5.427,5.4273,5.4233,5.4267,5.4206,5.4252,5.4208,5.4216,5.4207,5.421,5.4212,5.4144,5.4249,5.4418,5.4435,5.4213,5.4211,5.421,0,5.431,5.4332,5.4375,5.4375,5.4352,5.4374,5.4365,5.4354,5.4361,5.4365,5.437,5.4378,5.4382,5.439,5.4354,5.4312,5.4406,5.4341,5.4394,5.4396,5.4417,5.4416,5.4591,5.4421,5.4421,5.4421,5.442,0,5.4438,5.4482,5.443,5.4457,5.4504,5.4459,5.4507,5.4492,5.4483,5.4506,5.4454,5.4477,5.4428,5.4447,5.4419,5.4463,5.4465,5.4453,5.4446,5.4459,5.446,5.4463,5.4455,5.4425,5.4424,5.4423,5.4422,0,5.4582,5.4549,5.4592,5.4568,5.4563,5.4599,5.4578,5.4602,5.458,5.461,5.4615,5.458,5.4599,5.4564,5.4579,5.456,5.4621,5.4601,5.4625,5.4619,5.4675,5.4671,5.4859,5.4882,5.4696,5.4698,5.47,0,5.4666,5.4698,5.4678,5.469,5.4685,5.4704,5.4712,5.4669,5.4679,5.4673,5.4699,5.4714,5.4723,5.4757,5.4733,5.4745,5.4725,5.479,5.4726,5.4739,5.4727,5.4726,5.473,5.4804,5.4806,5.4808,5.4809,0,5.482,5.4802,5.4815,5.4824,5.4834,5.4839,5.4839,5.4852,5.4806,5.4821,5.484,5.4848,5.4863,5.4879,5.4885,5.4877,5.4836,5.483,5.4843,5.4857,5.4869,5.4864,5.4661,5.4825,5.4824,5.4823,5.4822,5.4821,5.4937,5.4963,5.4954,5.497,5.4966,5.4969,5.4991,5.4971,5.4987,5.4996,5.497,5.4996,5.4988,5.4992,5.4988,5.5008,5.4979,5.4998,5.5003,5.5008,5.5018,5.4866,5.5009,5.5008,5.5008,5.5007,5.5007,0,5.5088,5.508,5.5096,5.5098,5.5112,5.5073,5.5072,5.5086,5.511,5.5106,5.5117,5.514,5.5155,5.5133,5.5145,5.5166,5.5148,5.5171,5.5169,5.5168,5.5042,5.503,5.5185,5.5185,5.5185,5.5185,5.5185,5.5185,5.5169,5.5213,5.5194,5.5236,5.5226,5.5252,5.5255,5.5257,5.5254,5.5282,5.5295,5.528,5.527,5.5281,5.5294,5.5287,5.5294,5.5324,5.5311,5.5194,5.5177,5.516,5.5149,5.5326,5.5326,5.5435,5.5436,5.5437]}]]